Hourly Data Report for March 18, 2021

OTTAWA INTL A
ONTARIO
Current Station Operator: NAVCAN

45°19'00.000" N
75°40'00.000" W
114.90 m
6106001
71628
YOW

Download Data

Hourly Data (March 2021)
Hourly Data Report for March 18, 2021
TIME
LST
Temp Definition
°C
Dew Point Definition
°C
Rel Hum Definition
%
Precip. Amount Definition
mm

Wind Dir Definition
10's deg

Wind Spd Definition
km/h
Visibility Definition
km
Stn Press Definition
kPa
Hmdx Definition


Wind Chill Definition


Weather Definition


00:00 2.0 0.2 87   23 11 24.1 100.06     LegendNANA
01:00 1.7 0.4 91   24 9 16.1 100.14     Rain
02:00 1.4 0.5 94   21 8 8.1 100.17     Rain,Fog
03:00 1.7 0.9 95   27 11 12.9 100.12     LegendNANA
04:00 1.8 0.7 92   26 9 24.1 100.16     Cloudy
05:00 1.9 0.4 90   29 14 24.1 100.22     LegendNANA
06:00 1.3 0.0 91   29 10 24.1 100.26     LegendNANA
07:00 1.3 -0.3 89   29 18 24.1 100.27     Mostly Cloudy
08:00 1.7 -0.4 86   29 16 24.1 100.30     LegendNANA
09:00 2.6 0.2 84   30 15 24.1 100.34     LegendNANA
10:00 3.7 -1.0 71   33 26 24.1 100.38     Mostly Cloudy
11:00 4.6 -2.0 62   33 23 24.1 100.42     LegendNANA
12:00 4.3 -2.7 60   34 27 24.1 100.46     LegendNANA
13:00 4.9 -5.0 49   32 31 24.1 100.47     Mostly Cloudy
14:00 4.8 -9.0 36   33 29 24.1 100.46     LegendNANA
15:00 4.1 -12.0 30   35 28 24.1 100.47     LegendNANA
16:00 2.8 -13.4 29   36 34 24.1 100.53     Mostly Cloudy
17:00 1.7 -13.8 31   36 23 24.1 100.62     LegendNANA
18:00 0.2 -15.7 29   36 26 24.1 100.77     LegendNANA
19:00 -0.6 -16.5 29   34 31 24.1 100.87   -7 Mostly Cloudy
20:00 -1.4 -15.4 34   35 21 24.1 100.92   -7 LegendNANA
21:00 -2.4 -18.1 29   36 41 24.1 101.01   -11 LegendNANA
22:00 -3.4 -17.7 33   1 39 24.1 101.05   -12 Mainly Clear
23:00 -4.4 -17.5 36   36 30 24.1 101.14   -12 LegendNANA

Notes on Data Quality.

Legend

  • E = Estimated
  • M = Missing
  • NA = Not Available*
  • [empty] = Indicates an unobserved value
Date modified: